Location: Newark
(35.6799°N, 139.7636°E)
Time: 17:56:45
(UTC+00:00)

Transit 2A - Pass Details

Date: 06 December 2019
Orbit: 601 x 958 km, 66.7° (Epoch: 25 January)

Event Time Altitude Azimuth Distance (km) Brightness Sun altitude
Rises 20:41:34 0° 157° (SSE) 3,195 9.9 -11.1°
Reaches altitude 10° 20:45:41 10° 126° (SE) 2,182 9.8 -10.3°
Maximum altitude 20:47:20 12° 106° (ESE) 2,042 9.8 -10.0°
Drops below altitude 10° 20:48:55 10° 87° (E) 2,117 9.5 -9.7°
Sets 20:52:43 0° 54° (NE) 2,962 9.5 -9.0°
